Location: Peebles
(55.6412°N, 3.1714°W)
Time: 12:01:53
(UTC+00:00)

RS-15 - Pass Details

Date: 30 November 2023
Orbit: 1893 x 2151 km, 64.8° (Epoch: 02 March)

Event Time Altitude Azimuth Distance (km) Brightness Sun altitude
Exits shadow 01:15:39 44° 37° (NE) 2,610 8.7 -53.2°
Drops below altitude 10° 01:23:13 10° 65° (ENE) 4,402 10.2 -52.7°
Sets 01:26:36 0° 70° (ENE) 5,372 10.8 -52.4°
